Location: ??????
(38.0131°N, 23.7723°E)
Time: 00:25:06
(UTC+00:00)

Okean-O - Visible Passes

Search period start: 22 May 2022 00:00
Search period end: 01 June 2022 00:00
Orbit: 638 x 640 km, 98.1° (Epoch: 21 May)

Date Brightness Start Highest point End Pass type
(mag) Time Alt. Az. Time Alt. Az. Time Alt. Az.
22 May 4.5 18:47:31 10° SSW 18:51:20 28° W 18:55:10 10° NW visible
23 May 5.2 19:11:51 10° SW 19:14:36 16° W 19:17:21 10° NW visible
25 May 3.2 18:19:46 10° S 18:24:07 58° W 18:28:29 10° NNW visible
26 May 4.3 18:43:21 10° SSW 18:47:17 32° W 18:51:16 10° NNW visible
27 May 5.2 19:07:31 10° SW 19:10:32 18° W 19:13:34 10° NW visible
29 May 3.0 18:15:41 10° S 18:20:04 66° WSW 18:24:29 10° NNW visible
30 May 4.1 18:39:10 10° SSW 18:43:14 35° W 18:47:18 10° NNW visible
31 May 5.0 19:03:12 10° SW 19:06:27 20° W 19:09:43 10° NW visible
